Location: Peebles
(55.6412°N, 3.1714°W)
Time: 14:32:22
(UTC+01:00)

USA 306 - Pass Details

Date: 26 September 2021
Orbit: 564 x 573 km, 54.0° (Epoch: 24 September)

Event Time Altitude Azimuth Distance (km) Brightness Sun altitude
Rises 20:14:30 0° 278° (W) 2,761 8.5 -11.2°
Reaches altitude 10° 20:16:46 10° 274° (W) 1,864 7.0 -11.5°
Maximum altitude 20:20:56 58° 196° (SSW) 662 3.2 -12.0°
Enters shadow 20:23:53 18° 121° (ESE) 1,406 4.3 -12.5°
